This is the latest recevied weather packets stored in our database for station/object KE8WMS. If no packets are shown the sender has not sent any weather packets the latest 10 day(s).
| Time | Temp. | Humidity | Pressure | Rain* | Wind** | Luminosity | Snow |
|---|---|---|---|---|---|---|---|
| 1778106885 | 9.44° C | 69% | 1009.8 hPa | 0 mm | - | 78 W/m² | - |
| 1778106582 | 9.44° C | 68% | 1009.9 hPa | 0 mm | - | 83 W/m² | - |
| 1778106278 | 9.44° C | 68% | 1009.6 hPa | 0 mm | - | 80 W/m² | - |
| 1778105975 | 9.44° C | 70% | 1009.6 hPa | 0 mm | - | 85 W/m² | - |
| 1778105672 | 9.44° C | 70% | 1009.7 hPa | 0 mm | - | 81 W/m² | - |
| 1778105370 | 9.44° C | 69% | 1009.5 hPa | 0 mm | - | 69 W/m² | - |
| 1778105065 | 9.44° C | 69% | 1009.3 hPa | 0 mm | - | 79 W/m² | - |
| 1778104762 | 9.44° C | 69% | 1009.3 hPa | 0 mm | - | 70 W/m² | - |
| 1778104458 | 9.44° C | 70% | 1009.1 hPa | 0 mm | - | 90 W/m² | - |
| 1778104154 | 10° C | 70% | 1009.1 hPa | 0 mm | - | 83 W/m² | - |
| 1778103851 | 10° C | 68% | 1009.2 hPa | 0 mm | - | 89 W/m² | - |
| 1778103549 | 9.44° C | 68% | 1009 hPa | 0 mm | - | 97 W/m² | - |
| 1778103246 | 10° C | 68% | 1009.1 hPa | 0 mm | - | 99 W/m² | - |
| 1778102944 | 10° C | 69% | 1009.1 hPa | 0 mm | - | 123 W/m² | - |
| 1778102639 | 10° C | 70% | 1009 hPa | 0 mm | - | 163 W/m² | - |
| 1778102334 | 10° C | 68% | 1008.9 hPa | 0 mm | - | 197 W/m² | - |
| 1778102031 | 10° C | 68% | 1008.9 hPa | 0 mm | - | 153 W/m² | - |
| 1778101728 | 10° C | 67% | 1008.9 hPa | 0 mm | - | 161 W/m² | - |
| 1778101425 | 10.56° C | 70% | 1008.9 hPa | 0 mm | - | 189 W/m² | - |
| 1778101122 | 10° C | 69% | 1008.9 hPa | 0 mm | - | 207 W/m² | - |
| 1778100818 | 10.56° C | 69% | 1008.8 hPa | 0 mm | - | 250 W/m² | - |
| 1778100514 | 10° C | 67% | 1008.8 hPa | 0 mm | - | 240 W/m² | - |
| 1778100212 | 10° C | 68% | 1008.9 hPa | 0 mm | - | 242 W/m² | - |
| 1778099910 | 10° C | 69% | 1008.5 hPa | 0 mm | - | 277 W/m² | - |
| 1778099606 | 10° C | 70% | 1008.5 hPa | 0 mm | - | 276 W/m² | - |
* Rain latest hour (hover to see other rain measurements)
** Current wind speed in m/s (hover to see current wind gust speed)